FW1017 Weather Reports


time (UTC)temp
C
wind
direction
speed
KPH
gust
KPH
rain 1hr
cm
rain 24hr
cm
rain mn
cm
humidity
%
barometer
mb
20190821060304 18 0.0 0.0 0.00 0.00 0.00 83 1026.1
20190821055704 18 0.0 0.0 0.00 0.00 0.00 83 1025.9
20190821055504 18 0.0 0.0 0.00 0.00 0.00 83 1026.0
20190821055104 19 0.0 0.0 0.00 0.00 0.00 80 1025.8
20190821054704 18 0.0 0.0 0.00 0.00 0.00 81 1025.9
20190821054504 20 0.0 0.0 0.00 0.00 0.00 77 1025.8
20190821054304 20 0.0 0.0 0.00 0.00 0.00 78 1025.8
20190821053904 19 0.0 0.0 0.00 0.00 0.00 83 1025.8
20190821053704 18 0.0 0.0 0.00 0.00 0.00 85 1025.8
20190821053504 18 0.0 0.0 0.00 0.00 0.00 86 1025.8
20190821053304 18 0.0 0.0 0.00 0.00 0.00 85 1027.1
20190821053104 18 0.0 0.0 0.00 0.00 0.00 87 1025.7
20190821052904 18 0.0 0.0 0.00 0.00 0.00 86 1025.7
20190821052704 18 0.0 0.0 0.00 0.00 0.00 87 1025.8
20190821052504 18 0.0 0.0 0.00 0.00 0.00 88 1025.7
20190821052304 18 0.0 0.0 0.00 0.00 0.00 86 1025.7
20190821052104 18 0.0 0.0 0.00 0.00 0.00 85 1025.5
20190821051905 19 0.0 0.0 0.00 0.00 0.00 83 1025.6
20190821050704 18 0.0 0.0 0.00 0.00 0.00 87 1025.3
20190821050504 18 0.0 0.0 0.00 0.00 0.00 88 1025.4
20190821050104 17 0.0 0.0 0.00 0.00 0.00 90 1025.3
20190821045904 17 0.0 0.0 0.00 0.00 0.00 89 1025.3
20190821045704 18 0.0 0.0 0.00 0.00 0.00 89 1025.2
20190821045506 17 0.0 0.0 0.00 0.00 0.00 90 1025.1
20190821045105 17 0.0 0.0 0.00 0.00 0.00 91 1025.2
20190821044504 17 0.0 0.0 0.00 0.00 0.00 91 1025.2
20190821044303 17 0.0 0.0 0.00 0.00 0.00 91 1025.2
20190821044105 17 0.0 0.0 0.00 0.00 0.00 90 1025.3
20190821043504 17 0.0 0.0 0.00 0.00 0.00 91 1025.2
20190821043104 17 0.0 0.0 0.00 0.00 0.00 92 1025.2
20190821042904 17 0.0 0.0 0.00 0.00 0.00 91 1025.1
20190821042505 17 0.0 0.0 0.00 0.00 0.00 91 1025.1
20190821042105 17 0.0 0.0 0.00 0.00 0.00 94 1025.1
20190821041704 17 0.0 0.0 0.00 0.00 0.00 91 1025.1
20190821041105 18 0.0 0.0 0.00 0.00 0.00 90 1025.0
20190821040904 17 0.0 0.0 0.00 0.00 0.00 90 1025.0
20190821040706 17 0.0 0.0 0.00 0.00 0.00 90 1025.0
20190821040304 18 0.0 0.0 0.00 0.00 0.00 90 1024.9
20190821040105 18 0.0 0.0 0.00 0.00 0.00 89 1024.8
20190821035704 18 0.0 0.0 0.00 0.00 0.00 91 1024.8
20190821035304 18 0.0 0.0 0.00 0.00 0.00 89 1024.8
20190821034504 18 0.0 0.0 0.00 0.00 0.00 91 1024.8
20190821034104 18 0.0 0.0 0.00 0.00 0.00 91 1024.7
20190821033903 18 0.0 0.0 0.00 0.00 0.00 90 1024.7
20190821033704 18 0.0 0.0 0.00 0.00 0.00 88 1024.6
20190821033105 18 0.0 0.0 0.00 0.00 0.00 93 1024.6
20190821032703 18 0.0 0.0 0.00 0.00 0.00 94 1024.6
20190821032504 18 0.0 0.0 0.00 0.00 0.00 93 1024.6
20190821032305 18 0.0 0.0 0.00 0.00 0.00 94 1024.4
20190821031904 18 0.0 0.0 0.00 0.00 0.00 97 1024.6
20190821031504 18 0.0 0.0 0.00 0.00 0.00 94 1024.5
20190821031304 18 0.0 0.0 0.00 0.00 0.00 94 1024.5
20190821031104 18 0.0 0.0 0.00 0.00 0.00 95 1024.6
20190821030904 18 0.0 0.0 0.00 0.00 0.00 94 1024.4
20190821030704 18 0.0 0.0 0.00 0.00 0.00 94 1024.6
20190821030505 18 0.0 0.0 0.00 0.00 0.00 93 1024.4
20190821030104 18 0.0 0.0 0.00 0.00 0.00 95 1024.4
20190821025905 18 0.0 0.0 0.00 0.00 0.00 93 1024.4
20190821025505 18 0.0 0.0 0.00 0.00 0.00 96 1024.4
20190821024904 18 0.0 0.0 0.00 0.00 0.00 94 1024.5
20190821024704 18 0.0 0.0 0.00 0.00 0.00 95 1024.4
20190821024505 18 0.0 0.0 0.00 0.00 0.00 95 1024.3
20190821024105 18 0.0 0.0 0.00 0.00 0.00 96 1024.4
20190821023904 18 0.0 0.0 0.00 0.00 0.00 95 1024.3
20190821023504 18 0.0 0.0 0.00 0.00 0.00 96 1024.3
20190821022904 18 0.0 0.0 0.00 0.00 0.00 94 1024.4
20190821022705 18 0.0 0.0 0.00 0.00 0.00 93 1024.4
20190821022303 18 0.0 0.0 0.00 0.00 0.00 95 1024.5
20190821022104 18 0.0 0.0 0.00 0.00 0.00 93 1024.5
20190821021704 18 0.0 0.0 0.00 0.00 0.00 95 1024.5
20190821020904 18 0.0 0.0 0.00 0.00 0.00 95 1024.3
20190821020704 18 0.0 0.0 0.00 0.00 0.00 97 1024.3
20190821020304 18 0.0 0.0 0.00 0.00 0.00 98 1024.3
20190821015904 18 0.0 0.0 0.00 0.00 0.00 97 1024.3
20190821015705 18 0.0 0.0 0.00 0.00 0.00 95 1024.3
20190821015504 18 0.0 0.0 0.00 0.00 0.00 95 1024.3
20190821015304 18 0.0 0.0 0.00 0.00 0.00 95 1024.2
20190821015103 18 0.0 0.0 0.00 0.00 0.00 95 1024.3
20190821014904 18 0.0 0.0 0.00 0.00 0.00 94 1024.2
20190821014704 18 0.0 0.0 0.00 0.00 0.00 94 1024.1
20190821014103 19 0.0 0.0 0.00 0.00 0.00 92 1024.2
20190821013904 19 0.0 0.0 0.00 0.00 0.00 93 1024.1
20190821013704 19 0.0 0.0 0.00 0.00 0.00 94 1024.1
20190821013507 18 0.0 0.0 0.00 0.00 0.00 94 1024.2
20190821013304 18 0.0 0.0 0.00 0.00 0.00 92 1024.1
20190821012904 19 0.0 0.0 0.00 0.00 0.00 94 1024.2
20190821012304 19 0.0 0.0 0.00 0.00 0.00 95 1023.9
20190821012104 18 0.0 0.0 0.00 0.00 0.00 92 1023.9
20190821011906 19 0.0 0.0 0.00 0.00 0.00 91 1023.8
20190821011705 19 0.0 0.0 0.00 0.00 0.00 93 1023.7
20190821010704 19 0.0 0.0 0.00 0.00 0.00 91 1023.8
20190821005904 19 0.0 0.0 0.00 0.00 0.00 95 1023.9
20190821005503 19 0.0 0.0 0.00 0.00 0.00 94 1023.9
20190821005303 19 0.0 0.0 0.00 0.00 0.00 92 1023.9
20190821005104 20 0.0 0.0 0.00 0.00 0.00 87 1023.9
20190821004904 19 0.0 0.0 0.00 0.00 0.00 88 1023.8
20190821004504 19 0.0 0.0 0.00 0.00 0.00 85 1023.8
20190821003504 19 0.0 0.0 0.00 0.00 0.00 90 1023.9
20190821003304 19 0.0 0.0 0.00 0.00 0.00 90 1023.8
20190821003104 19 0.0 0.0 0.00 0.00 0.00 95 1023.8
20190821002904 18 0.0 0.0 0.00 0.00 0.00 96 1023.8
20190821002704 19 0.0 0.0 0.00 0.00 0.00 94 1023.8
20190821002504 19 0.0 0.0 0.00 0.00 0.00 89 1023.9
20190821002104 19 0.0 0.0 0.00 0.00 0.00 91 1023.8
20190821001904 19 0.0 0.0 0.00 0.00 0.00 94 1023.9
20190821001704 19 0.0 0.0 0.00 0.00 0.00 92 1023.8
20190821001504 19 0.0 0.0 0.00 0.00 0.00 93 1023.8
20190821001305 19 0.0 0.0 0.00 0.00 0.00 95 1023.8
20190821001104 19 0.0 0.0 0.00 0.00 0.00 94 1023.8
20190821000504 18 0.0 0.0 0.00 0.00 0.00 92 1023.9
20190821000104 19 0.0 0.0 0.00 0.00 0.00 90 1024.0
20190820235904 19 0.0 0.0 0.00 0.00 0.00 90 1024.0
20190820235704 19 0.0 0.0 0.00 0.00 0.00 90 1024.0
20190820235304 19 0.0 0.0 0.00 0.00 0.00 93 1024.1
20190820234905 19 0.0 0.0 0.00 0.00 0.00 90 1024.1
20190820234504 19 0.0 0.0 0.00 0.00 0.00 85 1024.1
20190820234305 20 0.0 0.0 0.00 0.00 0.00 85 1024.0
20190820234104 19 0.0 0.0 0.00 0.00 0.00 82 1024.0
20190820233903 20 0.0 0.0 0.00 0.00 0.00 80 1024.0
20190820233703 20 0.0 0.0 0.00 0.00 0.00 80 1024.0
20190820233503 19 0.0 0.0 0.00 0.00 0.00 79 1023.9
20190820233304 20 0.0 0.0 0.00 0.00 0.00 80 1023.9
20190820232904 19 0.0 0.0 0.00 0.00 0.00 77 1024.0
20190820232504 20 0.0 0.0 0.00 0.00 0.00 79 1023.9
20190820232305 20 0.0 0.0 0.00 0.00 0.00 78 1023.9
20190820231904 20 0.0 0.0 0.00 0.00 0.00 78 1023.9
20190820231303 20 0.0 0.0 0.00 0.00 0.00 77 1023.9
20190820230903 20 0.0 0.0 0.00 0.00 0.00 75 1023.8
20190820230705 20 0.0 0.0 0.00 0.00 0.00 81 1023.8
20190820230104 20 0.0 0.0 0.00 0.00 0.00 76 1023.9
20190820225704 20 0.0 0.0 0.00 0.00 0.00 76 1023.8
20190820225504 20 0.0 0.0 0.00 0.00 0.00 85 1023.8
20190820225305 20 0.0 0.0 0.00 0.00 0.00 84 1023.8
20190820225104 20 0.0 0.0 0.00 0.00 0.00 84 1023.8
20190820224909 20 0.0 0.0 0.00 0.00 0.00 86 1023.6
20190820224705 20 0.0 0.0 0.00 0.00 0.00 88 1023.5
20190820224504 20 0.0 0.0 0.00 0.00 0.00 89 1023.6
20190820224303 21 0.0 0.0 0.00 0.00 0.00 84 1023.5
20190820224105 21 0.0 0.0 0.00 0.00 0.00 81 1023.5
20190820223704 21 0.0 0.0 0.00 0.00 0.00 77 1023.4
20190820223509 21 0.0 0.0 0.00 0.00 0.00 78 1023.5
20190820223305 21 0.0 0.0 0.00 0.00 0.00 79 1023.2
20190820222505 21 0.0 0.0 0.00 0.00 0.00 78 1023.0
20190820221905 21 0.0 0.0 0.00 0.00 0.00 75 1022.9
20190820221705 21 0.0 0.0 0.00 0.00 0.00 77 1022.9
20190820221304 21 0.0 0.0 0.00 0.00 0.00 78 1022.9
20190820221103 21 0.0 0.0 0.00 0.00 0.00 73 1022.7
20190820220504 21 0.0 0.0 0.00 0.00 0.00 72 1022.7
20190820220105 21 0.0 0.0 0.00 0.00 0.00 72 1022.6
20190820215905 21 0.0 0.0 0.00 0.00 0.00 74 1022.7
20190820215704 21 0.0 0.0 0.00 0.00 0.00 78 1022.7
20190820215104 21 0.0 0.0 0.00 0.00 0.00 77 1022.6
20190820214904 21 0.0 0.0 0.00 0.00 0.00 76 1022.5
20190820214703 21 0.0 0.0 0.00 0.00 0.00 71 1022.4
20190820214504 21 0.0 0.0 0.00 0.00 0.00 73 1022.4
20190820214104 21 0.0 0.0 0.00 0.00 0.00 72 1022.3
20190820213903 21 0.0 0.0 0.00 0.00 0.00 74 1022.4
20190820213704 21 0.0 0.0 0.00 0.00 0.00 77 1022.3
20190820213303 21 0.0 0.0 0.00 0.00 0.00 73 1022.3
20190820213105 21 0.0 0.0 0.00 0.00 0.00 69 1022.3
20190820212904 22 0.0 0.0 0.00 0.00 0.00 73 1022.2
20190820212506 22 0.0 0.0 0.00 0.00 0.00 67 1022.3
20190820211904 22 0.0 0.0 0.00 0.00 0.00 66 1022.2
20190820211704 22 0.0 0.0 0.00 0.00 0.00 64 1022.3
20190820211503 22 0.0 0.0 0.00 0.00 0.00 65 1022.4
20190820211305 22 0.0 0.0 0.00 0.00 0.00 63 1022.3
20190820211104 22 0.0 0.0 0.00 0.00 0.00 65 1022.3
20190820210904 22 0.0 0.0 0.00 0.00 0.00 64 1022.3
20190820210506 22 0.0 0.0 0.00 0.00 0.00 63 1022.2
20190820210308 22 0.0 0.0 0.00 0.00 0.00 61 1022.2
20190820205904 22 0.0 0.0 0.00 0.00 0.00 63 1022.2
20190820205705 22 0.0 0.0 0.00 0.00 0.00 62 1022.2
20190820205504 22 0.0 0.0 0.00 0.00 0.00 60 1022.2
20190820204703 22 0.0 0.0 0.00 0.00 0.00 59 1022.1
20190820204504 22 0.0 0.0 0.00 0.00 0.00 58 1022.1
20190820204306 22 0.0 0.0 0.00 0.00 0.00 59 1022.0
20190820203903 22 0.0 0.0 0.00 0.00 0.00 60 1022.0
20190820203705 22 0.0 0.0 0.00 0.00 0.00 59 1022.0
20190820203304 22 0.0 0.0 0.00 0.00 0.00 58 1021.9
20190820202705 22 0.0 0.0 0.00 0.00 0.00 58 1021.9
20190820202303 22 0.0 0.0 0.00 0.00 0.00 60 1021.9
20190820202103 22 0.0 0.0 0.00 0.00 0.00 59 1022.0
20190820201704 22 0.0 0.0 0.00 0.00 0.00 60 1021.9
20190820201306 22 0.0 0.0 0.00 0.00 0.00 62 1022.0
20190820201105 22 0.0 0.0 0.00 0.00 0.00 60 1021.9
20190820200903 22 0.0 0.0 0.00 0.00 0.00 61 1022.0
20190820200504 22 0.0 0.0 0.00 0.00 0.00 62 1022.0
20190820195107 22 0.0 0.0 0.00 0.00 0.00 67 1021.8
20190820194908 22 0.0 0.0 0.00 0.00 0.00 65 1021.8
20190820194703 22 0.0 0.0 0.00 0.00 0.00 67 1021.8
20190820194503 23 0.0 0.0 0.00 0.00 0.00 66 1021.7
20190820194104 22 0.0 0.0 0.00 0.00 0.00 68 1021.7
20190820193904 22 0.0 0.0 0.00 0.00 0.00 67 1021.7
20190820193704 22 0.0 0.0 0.00 0.00 0.00 66 1021.6
20190820193504 22 0.0 0.0 0.00 0.00 0.00 67 1021.6
20190820193105 23 0.0 0.0 0.00 0.00 0.00 67 1023.1
20190820192704 22 0.0 0.0 0.00 0.00 0.00 67 1021.5
20190820192504 22 0.0 0.0 0.00 0.00 0.00 65 1021.5
20190820192304 22 0.0 0.0 0.00 0.00 0.00 67 1022.5
20190820192104 22 0.0 0.0 0.00 0.00 0.00 66 1021.5
20190820191904 23 0.0 0.0 0.00 0.00 0.00 66 1021.3
20190820191505 23 0.0 0.0 0.00 0.00 0.00 66 1021.3
20190820191303 23 0.0 0.0 0.00 0.00 0.00 66 1021.3
20190820191104 23 0.0 0.0 0.00 0.00 0.00 68 1021.3
20190820190704 22 0.0 0.0 0.00 0.00 0.00 70 1021.3
20190820190504 22 0.0 0.0 0.00 0.00 0.00 70 1021.2
20190820190104 23 0.0 0.0 0.00 0.00 0.00 62 1021.2
20190820185904 23 0.0 0.0 0.00 0.00 0.00 66 1021.2
20190820185303 23 0.0 0.0 0.00 0.00 0.00 65 1021.3
20190820185105 23 0.0 0.0 0.00 0.00 0.00 64 1021.2
20190820184304 23 0.0 0.0 0.00 0.00 0.00 67 1021.2
20190820184104 23 0.0 0.0 0.00 0.00 0.00 66 1021.2
20190820183904 23 0.0 0.0 0.00 0.00 0.00 65 1021.1
20190820182905 24 0.0 0.0 0.00 0.00 0.00 61 1021.1
20190820182504 23 0.0 0.0 0.00 0.00 0.00 64 1021.0
20190820182304 23 0.0 0.0 0.00 0.00 0.00 62 1021.0
20190820181905 24 0.0 0.0 0.00 0.00 0.00 59 1021.0
20190820181506 24 0.0 0.0 0.00 0.00 0.00 59 1021.0
20190820181306 24 0.0 0.0 0.00 0.00 0.00 58 1020.9
20190820181112 24 0.0 0.0 0.00 0.00 0.00 58 1020.9
20190820180304 24 0.0 0.0 0.00 0.00 0.00 58 1020.9
20190820180104 25 0.0 0.0 0.00 0.00 0.00 56 1020.7
20190820175705 24 0.0 0.0 0.00 0.00 0.00 59 1020.9
20190820175303 25 0.0 0.0 0.00 0.00 0.00 59 1020.7
20190820175104 25 0.0 0.0 0.00 0.00 0.00 59 1020.6
20190820174704 24 0.0 0.0 0.00 0.00 0.00 55 1020.7
20190820174505 24 0.0 0.0 0.00 0.00 0.00 57 1020.6
20190820174104 24 0.0 0.0 0.00 0.00 0.00 58 1020.6
20190820173905 24 0.0 0.0 0.00 0.00 0.00 58 1020.6
20190820173304 24 0.0 0.0 0.00 0.00 0.00 57 1020.6
20190820172904 25 0.0 0.0 0.00 0.00 0.00 57 1020.6
20190820172705 24 0.0 0.0 0.00 0.00 0.00 56 1020.5
20190820172304 24 0.0 0.0 0.00 0.00 0.00 58 1020.6
20190820172104 24 0.0 0.0 0.00 0.00 0.00 57 1020.6
20190820171705 24 0.0 0.0 0.00 0.00 0.00 53 1020.4
20190820171504 24 0.0 0.0 0.00 0.00 0.00 55 1020.5
20190820171304 24 0.0 0.0 0.00 0.00 0.00 55 1020.4
20190820171105 24 0.0 0.0 0.00 0.00 0.00 54 1020.4
20190820170704 24 0.0 0.0 0.00 0.00 0.00 54 1020.3
20190820170504 25 0.0 0.0 0.00 0.00 0.00 57 1020.3
20190820165304 25 0.0 0.0 0.00 0.00 0.00 52 1020.4
20190820165105 25 0.0 0.0 0.00 0.00 0.00 51 1020.3
20190820164704 25 0.0 0.0 0.00 0.00 0.00 49 1020.3
20190820164505 25 0.0 0.0 0.00 0.00 0.00 51 1020.4
20190820164104 25 0.0 0.0 0.00 0.00 0.00 49 1020.4
20190820163511 25 0.0 0.0 0.00 0.00 0.00 51 1020.3
20190820162504 25 0.0 0.0 0.00 0.00 0.00 52 1020.4
20190820162304 25 0.0 0.0 0.00 0.00 0.00 52 1020.4
20190820162105 25 0.0 0.0 0.00 0.00 0.00 53 1020.4
20190820161506 26 0.0 0.0 0.00 0.00 0.00 50 1020.4
20190820161113 26 0.0 0.0 0.00 0.00 0.00 49 1020.4
20190820160909 26 0.0 0.0 0.00 0.00 0.00 50 1020.2
20190820160704 26 0.0 0.0 0.00 0.00 0.00 49 1020.2
20190820160504 26 0.0 0.0 0.00 0.00 0.00 47 1020.4
20190820160304 26 0.0 0.0 0.00 0.00 0.00 48 1020.3
20190820155903 26 0.0 0.0 0.00 0.00 0.00 49 1020.2
20190820155705 26 0.0 0.0 0.00 0.00 0.00 47 1020.2
20190820155104 26 0.0 0.0 0.00 0.00 0.00 49 1020.2
20190820154704 26 0.0 0.0 0.00 0.00 0.00 47 1020.2
20190820154309 26 0.0 0.0 0.00 0.00 0.00 47 1020.3
20190820154104 26 0.0 0.0 0.00 0.00 0.00 46 1020.3
20190820153704 26 0.0 0.0 0.00 0.00 0.00 48 1020.3
20190820153307 26 0.0 0.0 0.00 0.00 0.00 49 1020.4
20190820153107 26 0.0 0.0 0.00 0.00 0.00 49 1020.3
20190820152903 26 0.0 0.0 0.00 0.00 0.00 47 1020.3
20190820152504 26 0.0 0.0 0.00 0.00 0.00 47 1020.4
20190820152304 26 0.0 0.0 0.00 0.00 0.00 47 1020.3
20190820152104 25 0.0 0.0 0.00 0.00 0.00 47 1020.3
20190820151705 26 0.0 0.0 0.00 0.00 0.00 46 1020.2
20190820151505 26 0.0 0.0 0.00 0.00 0.00 47 1020.2
20190820151105 26 0.0 0.0 0.00 0.00 0.00 47 1020.2
20190820150903 26 0.0 0.0 0.00 0.00 0.00 46 1020.1
20190820150703 26 0.0 0.0 0.00 0.00 0.00 45 1020.1
20190820150504 26 0.0 0.0 0.00 0.00 0.00 46 1020.1
20190820150104 26 0.0 0.0 0.00 0.00 0.00 45 1020.2
20190820145904 26 0.0 0.0 0.00 0.00 0.00 44 1020.1
20190820145714 26 0.0 0.0 0.00 0.00 0.00 44 1020.0
20190820145509 26 0.0 0.0 0.00 0.00 0.00 43 1020.1
20190820145304 26 0.0 0.0 0.00 0.00 0.00 44 1020.0
20190820145104 26 0.0 0.0 0.00 0.00 0.00 43 1020.1
20190820144905 26 0.0 0.0 0.00 0.00 0.00 44 1021.1
20190820144705 26 0.0 0.0 0.00 0.00 0.00 43 1020.1
20190820144504 26 0.0 0.0 0.00 0.00 0.00 45 1020.1
20190820144104 26 0.0 0.0 0.00 0.00 0.00 42 1020.1
20190820143705 27 0.0 0.0 0.00 0.00 0.00 42 1020.0
20190820142709 26 0.0 0.0 0.00 0.00 0.00 43 1020.1
20190820142105 26 0.0 0.0 0.00 0.00 0.00 42 1020.1
20190820141309 26 0.0 0.0 0.00 0.00 0.00 44 1019.9
20190820141105 26 0.0 0.0 0.00 0.00 0.00 43 1020.0
20190820140704 26 0.0 0.0 0.00 0.00 0.00 43 1020.0
20190820140504 26 0.0 0.0 0.00 0.00 0.00 43 1020.0
20190820140304 27 0.0 0.0 0.00 0.00 0.00 44 1020.0
20190820135906 27 0.0 0.0 0.00 0.00 0.00 45 1019.9
20190820135706 27 0.0 0.0 0.00 0.00 0.00 43 1020.0
20190820135505 26 0.0 0.0 0.00 0.00 0.00 43 1019.9
20190820135103 27 0.0 0.0 0.00 0.00 0.00 44 1020.1
20190820134504 27 0.0 0.0 0.00 0.00 0.00 43 1020.1
20190820134104 26 0.0 0.0 0.00 0.00 0.00 43 1020.1
20190820133704 27 0.0 0.0 0.00 0.00 0.00 41 1020.1
20190820133304 27 0.0 0.0 0.00 0.00 0.00 40 1020.2
20190820133108 27 0.0 0.0 0.00 0.00 0.00 40 1020.2
20190820132903 27 0.0 0.0 0.00 0.00 0.00 40 1020.5
20190820132504 27 0.0 0.0 0.00 0.00 0.00 41 1020.4
20190820131704 28 0.0 0.0 0.00 0.00 0.00 39 1020.2
20190820131504 27 0.0 0.0 0.00 0.00 0.00 40 1020.3
20190820131304 27 0.0 0.0 0.00 0.00 0.00 40 1020.3
20190820131105 27 0.0 0.0 0.00 0.00 0.00 40 1020.2
20190820130704 27 0.0 0.0 0.00 0.00 0.00 41 1020.3
20190820130304 27 0.0 0.0 0.00 0.00 0.00 40 1020.2
20190820125804 28 0.0 0.0 0.00 0.00 0.00 38 1020.1
20190820125604 28 0.0 0.0 0.00 0.00 0.00 38 1020.1
20190820125404 28 0.0 0.0 0.00 0.00 0.00 39 1020.2
20190820125204 28 0.0 0.0 0.00 0.00 0.00 37 1020.2
20190820124804 27 0.0 0.0 0.00 0.00 0.00 40 1020.2
20190820124605 27 0.0 0.0 0.00 0.00 0.00 41 1020.2
20190820124204 28 0.0 0.0 0.00 0.00 0.00 40 1020.2
20190820124004 28 0.0 0.0 0.00 0.00 0.00 42 1020.2
20190820123804 27 0.0 0.0 0.00 0.00 0.00 40 1020.2
20190820123603 27 0.0 0.0 0.00 0.00 0.00 40 1021.3
20190820123401 27 0.0 0.0 0.00 0.00 0.00 42 1020.4
20190820115904 28 0.0 0.0 0.00 0.00 0.00 39 1020.3
20190820115303 28 0.0 0.0 0.00 0.00 0.00 40 1021.5
20190820115103 28 0.0 0.0 0.00 0.00 0.00 39 1020.3
20190820114904 28 0.0 0.0 0.00 0.00 0.00 38 1020.4
20190820114705 28 0.0 0.0 0.00 0.00 0.00 38 1020.3
20190820114303 28 0.0 0.0 0.00 0.00 0.00 40 1020.3
20190820114104 28 0.0 0.0 0.00 0.00 0.00 39 1020.4
20190820113705 28 0.0 0.0 0.00 0.00 0.00 39 1020.2
20190820113504 29 0.0 0.0 0.00 0.00 0.00 38 1020.2
20190820113304 30 0.0 0.0 0.00 0.00 0.00 38 1020.2
20190820113105 29 0.0 0.0 0.00 0.00 0.00 37 1020.2
20190820112704 28 0.0 0.0 0.00 0.00 0.00 38 1020.3
20190820112105 29 0.0 0.0 0.00 0.00 0.00 38 1020.4
20190820111904 29 0.0 0.0 0.00 0.00 0.00 38 1020.3
20190820111705 29 0.0 0.0 0.00 0.00 0.00 38 1020.3
20190820111304 28 0.0 0.0 0.00 0.00 0.00 38 1020.5
20190820110904 30 0.0 0.0 0.00 0.00 0.00 39 1020.5
20190820110705 30 0.0 0.0 0.00 0.00 0.00 37 1020.4
20190820105704 28 0.0 0.0 0.00 0.00 0.00 39 1020.5
20190820105504 28 0.0 0.0 0.00 0.00 0.00 38 1020.4
20190820104915 28 0.0 0.0 0.00 0.00 0.00 41 1020.6
20190820104704 28 0.0 0.0 0.00 0.00 0.00 41 1020.5
20190820104504 28 0.0 0.0 0.00 0.00 0.00 41 1020.6
20190820104303 28 0.0 0.0 0.00 0.00 0.00 41 1020.5
20190820104103 28 0.0 0.0 0.00 0.00 0.00 40 1020.5
20190820103904 27 0.0 0.0 0.00 0.00 0.00 41 1020.5
20190820103305 28 0.0 0.0 0.00 0.00 0.00 40 1020.5
20190820102705 28 0.0 0.0 0.00 0.00 0.00 41 1020.5
20190820102305 28 0.0 0.0 0.00 0.00 0.00 41 1020.6
20190820101904 27 0.0 0.0 0.00 0.00 0.00 44 1020.7
20190820101704 27 0.0 0.0 0.00 0.00 0.00 41 1020.7
20190820101104 27 0.0 0.0 0.00 0.00 0.00 40 1020.8
20190820100905 28 0.0 0.0 0.00 0.00 0.00 42 1020.7
20190820100704 27 0.0 0.0 0.00 0.00 0.00 41 1020.7
20190820100504 27 0.0 0.0 0.00 0.00 0.00 43 1020.7
20190820100103 27 0.0 0.0 0.00 0.00 0.00 44 1020.7
20190820095903 27 0.0 0.0 0.00 0.00 0.00 44 1020.7
20190820095704 27 0.0 0.0 0.00 0.00 0.00 45 1020.7
20190820095504 26 0.0 0.0 0.00 0.00 0.00 45 1020.7
20190820094904 27 0.0 0.0 0.00 0.00 0.00 44 1020.5
20190820094703 26 0.0 0.0 0.00 0.00 0.00 45 1020.6
20190820094504 26 0.0 0.0 0.00 0.00 0.00 46 1020.7
20190820094303 27 0.0 0.0 0.00 0.00 0.00 45 1020.8
20190820093904 27 0.0 0.0 0.00 0.00 0.00 45 1020.8
20190820093504 26 0.0 0.0 0.00 0.00 0.00 48 1020.8
20190820092305 27 0.0 0.0 0.00 0.00 0.00 47 1021.0
20190820092104 27 0.0 0.0 0.00 0.00 0.00 45 1021.0
20190820091904 27 0.0 0.0 0.00 0.00 0.00 43 1021.0
20190820091704 27 0.0 0.0 0.00 0.00 0.00 46 1020.9
20190820091104 26 0.0 0.0 0.00 0.00 0.00 48 1020.9
20190820090503 26 0.0 0.0 0.00 0.00 0.00 51 1020.9
20190820090304 25 0.0 0.0 0.00 0.00 0.00 51 1021.0
20190820090107 25 0.0 0.0 0.00 0.00 0.00 49 1021.0
20190820085904 26 0.0 0.0 0.00 0.00 0.00 51 1021.0
20190820085705 26 0.0 0.0 0.00 0.00 0.00 51 1021.0
20190820084704 25 0.0 0.0 0.00 0.00 0.00 53 1021.0
20190820084304 25 0.0 0.0 0.00 0.00 0.00 53 1020.9
20190820084104 25 0.0 0.0 0.00 0.00 0.00 51 1020.9
20190820083905 25 0.0 0.0 0.00 0.00 0.00 55 1021.0
20190820083504 25 0.0 0.0 0.00 0.00 0.00 56 1021.1
20190820083304 25 0.0 0.0 0.00 0.00 0.00 55 1020.9
20190820083104 25 0.0 0.0 0.00 0.00 0.00 54 1020.9
20190820082704 26 0.0 0.0 0.00 0.00 0.00 54 1020.9
20190820082504 26 0.0 0.0 0.00 0.00 0.00 52 1020.8
20190820082305 26 0.0 0.0 0.00 0.00 0.00 53 1020.8
20190820081905 25 0.0 0.0 0.00 0.00 0.00 53 1020.9
20190820081504 25 0.0 0.0 0.00 0.00 0.00 49 1020.7
20190820080904 25 0.0 0.0 0.00 0.00 0.00 53 1020.7
20190820080304 24 0.0 0.0 0.00 0.00 0.00 54 1020.6
20190820075904 25 0.0 0.0 0.00 0.00 0.00 53 1020.7
20190820075705 25 0.0 0.0 0.00 0.00 0.00 53 1020.6
20190820075306 24 0.0 0.0 0.00 0.00 0.00 56 1020.8
20190820075104 25 0.0 0.0 0.00 0.00 0.00 55 1020.7
20190820074504 24 0.0 0.0 0.00 0.00 0.00 56 1020.6
20190820074303 25 0.0 0.0 0.00 0.00 0.00 55 1020.6
20190820074104 25 0.0 0.0 0.00 0.00 0.00 57 1020.5
20190820073904 24 0.0 0.0 0.00 0.00 0.00 57 1020.6
20190820073704 23 0.0 0.0 0.00 0.00 0.00 58 1020.7
20190820073303 24 0.0 0.0 0.00 0.00 0.00 56 1020.6
20190820073104 24 0.0 0.0 0.00 0.00 0.00 55 1020.5
20190820072904 24 0.0 0.0 0.00 0.00 0.00 52 1020.5
20190820072505 24 0.0 0.0 0.00 0.00 0.00 55 1020.5
20190820072307 23 0.0 0.0 0.00 0.00 0.00 55 1020.6
20190820072104 23 0.0 0.0 0.00 0.00 0.00 58 1020.6
20190820071704 23 0.0 0.0 0.00 0.00 0.00 56 1020.6
20190820070904 23 0.0 0.0 0.00 0.00 0.00 57 1020.7
20190820070704 22 0.0 0.0 0.00 0.00 0.00 57 1020.8
20190820070106 21 0.0 0.0 0.00 0.00 0.00 64 1020.8
20190820065904 22 0.0 0.0 0.00 0.00 0.00 60 1020.7
20190820065504 22 0.0 0.0 0.00 0.00 0.00 61 1020.6
20190820064904 21 0.0 0.0 0.00 0.00 0.00 65 1020.7
20190820064704 21 0.0 0.0 0.00 0.00 0.00 64 1020.7
20190820064504 21 0.0 0.0 0.00 0.00 0.00 65 1020.7
20190820064104 21 0.0 0.0 0.00 0.00 0.00 65 1020.7
20190820063704 21 0.0 0.0 0.00 0.00 0.00 67 1020.6
20190820063504 21 0.0 0.0 0.00 0.00 0.00 67 1020.6
20190820063304 21 0.0 0.0 0.00 0.00 0.00 67 1020.6
20190820063104 21 0.0 0.0 0.00 0.00 0.00 70 1020.7
20190820062904 20 0.0 0.0 0.00 0.00 0.00 74 1020.7
20190820062504 20 0.0 0.0 0.00 0.00 0.00 67 1020.7
20190820061904 20 0.0 0.0 0.00 0.00 0.00 71 1020.7